Theta_e
350 351 351 351 350 351 351 352 353 353 354 355 355 356 357 359 360 361 361 362 362 361 360 360 362 362 362 361 363 361 362 359 360 357 358 358 357 356 356 356 355 358
350 352 354 352 353 355 353 353 354 354 354 355 356 357 357 359 359 360 360 360 362 361 360 360 360 361 361 361 361 361 360 360 359 361 358 358 357 356 357 357 356 356
350 351 353 351 351 353 353 354 355 355 355 355 356 357 357 359 358 359 360 360 360 361 360 360 360 361 361 361 361 362 360 358 358 358 361 358 357 357 358 357 357 357
350 351 352 352 352 353 354 354 355 356 356 356 356 357 357 359 359 358 358 362 359 359 360 360 360 361 361 361 361 361 361 360 359 359 359 360 360 359 358 358 359 359
350 351 352 353 353 354 355 354 354 355 355 356 357 358 359 359 359 358 358 359 359 358 359 361 361 361 362 361 361 360 361 361 360 360 359 358 360 360 360 359 358 357
350 352 353 353 353 353 354 354 355 355 355 355 357 359 359 358 358 358 358 357 357 358 358 360 361 361 361 362 361 361 361 361 361 361 360 359 360 360 360 361 359 358
349 350 351 353 353 353 353 354 355 357 356 357 358 358 359 359 358 358 359 358 358 359 358 360 361 362 362 362 362 361 360 360 360 361 361 360 360 360 359 361 361 359
350 350 352 353 353 353 353 353 354 356 357 357 357 358 359 358 359 358 359 359 358 358 359 359 361 361 360 361 361 360 360 359 359 359 359 360 359 359 360 359 360 359
351 351 351 352 352 352 352 353 353 354 356 356 356 357 359 359 359 359 360 359 359 359 359 359 360 360 360 360 360 360 360 360 360 360 359 359 358 359 359 359 358 358
351 352 352 352 352 352 352 353 353 353 355 354 354 355 355 358 359 360 360 360 359 359 358 359 359 360 360 360 360 360 360 360 360 360 360 359 359 359 359 359 358 358
351 352 352 352 352 352 352 353 353 352 353 353 353 353 354 354 357 359 359 359 358 359 359 358 359 359 360 360 360 361 360 360 361 360 360 360 360 360 361 360 359 358
351 351 351 352 352 352 353 353 353 352 352 353 353 353 353 353 353 355 357 357 358 359 359 360 359 359 360 360 360 360 360 360 361 361 360 360 360 360 360 360 360 360
349 349 350 351 352 353 353 353 353 353 352 351 352 352 352 351 351 352 355 357 357 358 358 359 359 359 359 360 360 360 360 360 360 360 360 359 360 359 360 360 359 359
348 349 349 348 350 350 351 352 352 351 352 353 353 352 351 351 351 351 352 355 356 357 358 359 359 358 358 359 359 359 359 359 360 360 359 359 359 360 359 359 359 359
348 348 349 349 350 350 349 348 349 349 349 349 350 351 350 351 351 351 351 352 354 356 357 357 357 357 357 357 357 358 358 358 358 359 359 359 359 359 359 359 359 359
347 348 349 349 349 349 349 349 349 349 349 349 349 349 349 351 351 351 350 350 351 353 355 355 356 356 356 350 351 357 357 356 357 358 358 358 358 358 357 357 357 358
349 349 350 349 349 349 349 349 349 349 350 350 350 350 349 350 351 349 348 348 349 350 351 352 354 355 348 338 338 342 355 356 355 356 356 357 356 356 356 356 356 357
346 348 348 349 350 349 350 350 351 351 351 351 350 350 351 351 349 348 348 347 346 347 348 350 352 350 337 335 335 334 343 355 355 354 354 354 355 355 355 355 355 355
343 343 344 345 346 348 350 351 350 349 349 349 350 352 352 351 350 349 349 348 347 346 345 347 350 343 333 331 332 332 332 343 354 355 353 353 353 354 354 354 354 355
341 341 341 343 345 346 347 346 346 345 347 349 350 351 350 350 351 351 350 349 349 349 348 347 347 343 333 328 327 328 329 334 349 352 353 353 353 353 352 353 353 353
337 338 340 342 343 343 343 344 345 346 346 347 348 348 347 348 349 350 351 353 352 351 350 349 349 340 330 325 323 321 324 331 343 347 350 352 353 353 353 354 354 354
334 335 337 339 341 341 339 339 342 344 345 347 348 347 347 348 348 348 348 349 351 351 351 351 352 336 329 324 321 320 322 335 341 344 346 348 350 352 353 354 354 354
332 333 334 335 337 338 340 339 340 341 344 347 346 346 346 347 347 347 348 348 350 350 349 350 351 343 329 322 319 318 326 339 341 343 344 345 347 349 351 353 354 354
331 330 330 332 332 334 338 338 338 340 341 345 345 344 345 346 348 348 349 349 350 350 350 350 351 345 326 322 318 319 327 340 342 342 343 345 346 348 350 352 353 355
329 330 328 328 329 332 336 336 336 339 342 344 345 345 344 344 345 344 345 346 347 348 346 347 349 344 326 319 319 317 329 339 340 341 342 343 344 346 348 350 351 353
326 328 329 328 328 330 334 336 338 339 340 341 343 342 340 340 341 340 340 342 345 345 343 344 345 345 340 320 315 316 319 336 340 340 341 342 342 343 344 346 347 349
Wind_Speed
6 6 6 6 6 6 6 6 5 6 5 5 5 5 6 5 4 5 5 4 4 4 4 4 4 4 3 3 3 3 3 3 3 2 3 2 2 2 2 2 1 1
6 6 5 5 4 4 4 6 6 7 6 6 6 5 5 5 5 5 5 5 4 4 4 4 4 4 4 3 3 3 3 3 4 2 3 4 3 2 3 2 2 2
6 6 6 7 6 7 6 6 6 6 6 6 5 5 5 4 5 5 5 5 5 4 4 4 4 4 4 4 3 3 4 4 4 3 4 5 3 3 3 2 2 3
7 6 6 6 6 6 5 5 5 5 4 5 6 5 4 4 5 6 5 5 5 5 4 4 4 4 4 4 3 3 4 4 4 3 3 3 3 3 4 3 2 2
8 6 5 5 5 5 5 5 5 5 6 6 5 5 5 5 5 5 5 5 5 5 4 5 4 4 4 3 4 4 3 4 3 3 4 5 4 4 3 3 3 4
7 7 6 6 6 6 5 6 6 6 5 5 6 5 5 5 5 5 6 6 5 5 5 4 4 4 4 4 3 4 4 3 3 3 4 5 4 3 2 3 3 4
8 7 7 6 6 6 6 6 5 5 5 6 4 5 5 5 6 6 6 6 5 5 5 5 5 5 4 4 4 4 4 4 3 3 4 4 4 4 3 3 3 4
7 6 6 6 6 6 6 6 5 5 6 4 6 5 5 5 6 5 5 5 5 6 6 6 6 6 5 4 5 5 5 3 3 4 4 5 4 5 4 3 3 4
5 5 5 6 6 6 6 5 5 5 5 5 5 5 5 5 5 5 6 6 6 6 6 5 6 6 5 6 6 6 6 5 4 4 5 5 5 5 5 3 4 4
5 4 5 5 6 5 6 5 5 5 5 6 6 4 5 5 5 5 5 6 6 6 6 6 6 5 5 6 6 6 6 6 5 5 5 5 5 5 4 4 5 5
6 6 6 6 6 4 5 5 5 5 5 6 6 6 5 5 5 5 5 5 5 6 6 6 7 6 6 6 6 6 6 6 6 5 5 5 5 5 5 5 5 6
6 6 7 8 7 6 6 5 4 5 5 5 6 7 6 6 6 5 5 6 6 7 7 7 6 6 7 7 7 6 6 6 5 6 6 6 6 5 6 5 6 6
2 2 3 4 5 6 6 6 6 5 5 5 5 6 6 5 6 6 6 6 7 6 6 7 7 7 7 7 7 6 6 6 6 6 6 5 5 6 6 6 6 6
1 1 1 3 4 6 4 4 5 6 5 5 4 5 5 6 6 6 6 6 6 7 7 6 6 6 7 6 6 6 6 6 6 6 6 6 6 6 6 6 6 7
0 2 2 1 2 2 3 4 3 3 3 3 4 4 4 5 5 5 6 6 6 6 6 5 5 6 5 5 6 7 6 7 7 7 7 7 6 6 6 6 6 6
1 2 1 0 1 1 2 3 3 2 1 0 1 2 4 4 5 5 5 6 6 6 6 5 5 5 8 12 10 7 7 6 5 6 6 6 6 6 6 6 7 7
1 1 0 1 2 2 2 1 1 2 2 3 2 2 2 3 3 4 5 5 6 6 7 6 6 6 12 13 13 14 8 6 7 7 6 6 7 7 7 7 6 7
6 6 5 4 3 2 4 4 3 2 0 1 2 2 2 1 2 2 3 3 4 5 6 6 6 9 12 13 13 13 11 8 6 6 6 6 6 7 7 6 6 6
6 6 6 6 5 5 6 5 5 5 5 4 4 3 3 3 3 3 3 3 2 4 5 5 6 8 11 11 12 13 13 11 6 7 6 7 6 7 7 7 7 6
4 4 4 4 3 3 3 4 5 6 6 6 5 5 5 4 4 4 3 3 3 3 4 4 5 7 8 9 10 12 13 10 7 8 7 8 8 7 7 7 8 7
5 5 5 4 4 4 4 4 4 4 5 4 5 5 5 5 4 6 6 6 5 3 3 3 3 6 7 7 7 9 10 6 6 6 6 7 7 8 9 8 8 6
5 5 4 4 4 4 4 4 4 4 4 3 4 4 5 5 5 6 6 6 6 6 5 4 3 5 6 7 7 6 3 3 4 5 6 7 7 7 8 7 7 6
4 5 5 6 5 5 5 5 4 4 3 3 3 4 4 5 5 4 2 3 5 4 5 7 5 6 9 8 6 5 1 1 3 4 5 6 7 7 7 6 6 6
5 5 6 6 6 6 5 4 3 3 3 4 4 5 6 5 5 5 4 4 5 6 4 4 5 8 14 13 9 5 2 1 2 3 4 5 6 6 5 5 7 10
5 6 6 6 6 6 6 6 6 5 4 5 5 6 7 6 7 6 6 6 6 6 10 7 6 7 12 13 12 9 4 2 1 2 3 4 4 4 4 4 5 6
6 6 6 7 7 7 6 6 5 5 7 6 6 6 6 6 6 6 6 5 4 6 6 7 7 6 9 13 12 12 9 4 1 2 3 4 4 4 5 3 3 3
Wind_Direction
183 171 171 176 184 180 172 168 176 177 188 178 184 195 192 193 176 180 189 184 196 199 199 201 196 201 199 200 204 207 200 213 215 177 188 179 195 189 185 170 177 170
189 177 172 171 168 178 177 178 175 182 185 187 193 185 192 178 188 180 180 187 194 206 203 203 204 205 205 198 198 203 219 205 229 177 193 209 230 219 237 207 190 181
181 177 170 171 175 183 183 183 179 184 179 189 179 182 184 187 177 183 183 184 188 198 197 205 214 220 211 209 196 205 212 212 232 219 200 221 211 219 240 220 214 207
178 180 177 181 178 180 180 171 187 182 167 167 189 186 183 185 176 179 183 192 186 195 198 192 207 215 216 217 201 216 220 219 231 206 221 226 220 213 230 215 232 224
171 176 178 178 183 177 166 175 186 184 190 196 172 171 178 178 178 184 181 191 186 193 193 200 198 213 211 212 200 220 224 232 226 205 215 231 224 206 222 199 228 248
176 176 180 179 180 173 176 185 191 186 194 183 195 177 180 178 182 188 188 188 192 191 193 196 197 204 201 203 197 216 221 229 224 200 219 231 237 214 218 202 212 236
178 176 180 179 178 181 185 192 189 193 194 202 165 192 178 180 188 194 193 193 190 195 196 193 194 199 191 191 191 207 214 224 220 212 230 245 251 258 241 226 226 236
188 178 175 177 178 182 192 192 192 194 197 176 191 197 180 193 195 198 197 194 195 200 203 198 198 198 192 185 197 202 211 199 212 218 233 249 247 259 259 250 236 242
184 186 178 183 185 187 196 193 192 196 185 188 201 198 193 198 201 198 201 198 203 208 204 206 204 201 194 191 200 201 205 206 207 209 224 239 243 251 259 260 256 245
188 184 184 192 201 199 200 196 187 190 185 192 200 191 192 208 208 206 198 202 206 207 204 210 204 205 196 199 202 200 204 211 203 207 218 231 241 248 250 245 250 261
188 181 186 199 214 212 212 196 196 193 190 198 192 199 196 190 205 205 211 208 214 213 210 207 208 203 200 202 206 203 207 212 208 206 215 223 232 238 243 237 242 245
190 193 199 200 199 198 201 198 202 203 204 207 201 204 203 199 199 197 202 211 215 222 219 219 215 208 208 211 208 203 204 212 215 215 218 222 228 232 234 233 241 242
212 256 278 250 225 210 190 185 193 204 211 217 211 213 208 211 211 207 206 204 215 217 222 220 218 215 218 217 217 210 207 209 217 222 223 222 226 231 235 235 239 246
126 304 20 23 4 342 294 221 196 197 208 219 214 223 225 224 223 223 221 209 211 211 219 215 216 218 219 222 225 220 214 215 217 225 230 230 230 227 229 234 232 237
184 213 195 54 15 34 0 331 304 227 209 222 226 229 229 229 235 235 235 233 228 220 216 212 214 220 213 212 214 220 218 222 217 220 227 235 240 242 235 235 238 237
23 340 334 126 65 44 1 318 300 323 350 25 331 280 280 274 258 244 235 236 234 229 218 210 219 218 224 219 216 213 212 222 220 223 225 229 237 245 248 242 243 242
107 166 85 49 82 109 118 101 346 316 320 315 314 328 328 342 326 294 270 253 239 231 224 218 222 226 227 222 220 222 220 217 219 226 220 223 227 230 240 242 241 240
62 70 76 76 94 138 176 174 159 157 183 292 303 338 23 11 358 325 321 305 283 269 254 243 236 234 228 226 225 226 225 230 229 231 226 224 228 231 236 238 241 240
58 69 81 77 66 78 98 124 125 107 94 85 63 37 24 22 346 354 341 333 308 292 282 275 269 258 244 236 232 230 227 226 240 238 236 235 229 232 238 244 244 239
42 61 64 63 53 46 52 74 89 96 93 92 95 85 67 34 5 358 356 348 333 299 280 283 276 290 282 258 245 239 236 223 237 241 242 244 241 233 234 236 240 243
40 47 62 60 66 58 45 51 71 86 76 69 59 55 53 52 37 12 359 350 344 324 301 290 281 293 302 307 286 260 254 236 247 254 256 254 249 245 243 241 241 235
38 43 47 58 66 75 64 38 20 41 60 62 72 66 61 49 47 44 20 2 346 339 323 307 307 313 312 317 325 322 286 233 232 240 248 257 259 259 255 253 251 244
36 45 46 43 32 38 45 37 20 10 11 16 57 57 62 47 37 38 41 352 326 323 336 327 328 327 342 342 6 16 116 203 221 234 242 247 251 253 257 256 253 248
25 32 43 45 40 32 23 28 19 17 18 13 36 43 50 42 44 47 56 26 352 347 322 325 348 10 19 13 12 360 317 280 243 232 242 249 257 256 250 247 248 247
32 37 38 35 34 25 22 26 22 23 19 38 48 50 53 47 49 49 47 32 12 15 28 16 14 23 20 16 12 10 350 313 289 262 272 266 270 271 259 252 256 255
28 29 27 27 22 21 24 35 24 33 35 46 55 61 59 50 48 47 44 39 13 15 19 15 19 22 16 15 18 20 16 350 322 316 310 314 309 306 301 292 280 282